Starlink 5294

operational
NORAD ID: 54159 Int'l Des: 2022-141 Owner: SPXS Country: US Constellation: starlink
LEOCIRCULAR

Über Starlink 5294

Beschreibung wird geladen...

Live-Position

3D-Globus wird geladen...

Nächste Überflüge

Höhenverlauf

Altitude vs Time

uPlot chart will show altitude changes over time

Zweizeiliger Elementsatz

1 54159U 22141C 25351.33828028 -.00000441 00000-0 -95908-5 0 9991
2 54159 53.2203 23.9147 0001556 90.7285 269.3885 15.08834063173285
Epoch: 17. Dez. 2025 • Age: 10 hours

Aktueller Status

Höhe 544.1 km
Geschwindigkeit 7.59 km/s
Subsatellitenpunkt -15.03°S, 151.17°W
Startdatum 28. Okt. 2022
Alter 3.1 years
Typ internet

Technische Details

Klassifizierung Payload
Masse 305.00 kg
Trockenmasse 290.00 kg
Gesamtmasse 305.00 kg
Länge 0.20 m
Durchmesser 2.80 m
Spannweite 9.00 m
Form Box + pan
Hersteller SPXS
Bus-Typ Starlink
Phasenstatus In Orbit
Besitzer/Staat SPXS/US

Große Konstellationen

Loading constellations...